TITAN 3C TRANSTAGE DEB, 43454

Orbit data source: Space-Track

TITAN 3C TRANSTAGE DEB, 43454 is space debris in GEO originally from a launch on Sun, 09 Feb 1969 UTC launched from the Air Force Eastern Test Range (AFETR). Debris objects in space refer to the collection of defunct objects orbiting the Earth. Examples of debris include non-operational satellites, rocket bodies, and fragments generated from explosions, collisions, or faulty payload assembly.

Loading next visibility...
Identifier
43454, 1969-013M
Orbit
GEO
Country
Flag of USUS
Related business
Manufacturer
Martin Marietta
Mission
Spacecraft
Bus & Motor
Unknown
Mass
Unknown
Launch date (UTC)
1969-02-09 (58 years ago)
Launch vehicle
Unknown
Launch site
Air Force Eastern Test Range (AFETR)
Object type
Payload
Rocket body
Debris
Shape & HBR
Unknown shape, 1.1 m
Radar Cross Section
Medium (>0.1 m² and <1 m²)

Expand to show TLE details & history
Last TLE update: 2 days ago

TLE from 2 days ago
0 TITAN 3C TRANSTAGE DEB
1 43454U 69013M   26253.81358057 -.00000048  00000-0  00000-0 0  9997
2 43454   1.3169 115.9104 0543618 358.1973   2.3266  1.02844478 31513
Epoch: 2026-09-10T19:31Z
TLE epoch observation values (Epoch: 2026-09-10T19:31:33.361Z)
Latitude
0.00002°
Longitude
-166.06376°
Altitude
32,830.586 km
Speed
3.274 km/s
True Right ascension
07h 46m 41s
True Declination
0° 00' 00"
Sunlit
Object was in daylight at epoch
Visualization orbit readout
Latitude
Unknown
Longitude
Unknown
Altitude
Unknown
Speed
Unknown
Apparent Right ascension
Unknown
Apparent Declination
Unknown
Sunlit
N/A
Visualization observer readout
Local Sidereal Time
11:16:26
Azimuth
Unknown
Elevation
Unknown
Doppler factor
Unknown
Orbital elements
Apogee altitude
37,335.367 km
Perigee altitude
32,827.721 km
Semi-major axis
41,459.681 km
Eccentricity
0.05436
Inclination
1.3169°
RAAN
115.9104°
Arg. of periapsis
358.1973°
True anomaly
2.59785°
Mean anomaly
2.3266°
Eccentric anomaly
2.46031°
Mean motion
0.2571 °/min
Orbital period
1,400.23 mins
BSTAR
0
Loading maneuver chart data...
Computing Atmospheric mass density...

Documentation

Showing up to 5 results
|